Regional Weather Roundup
Issued by NWS Portland, ME

Home | Current Version | Previous Version | Text Only | Print | Product List | Glossary On
Versions: 1 2 3 4 5 6 7 8 9 10 11 12 13 14 15 16 17 18 19 20 21 22 23 24 25 26 27 28 29 30 31 32 33 34 35 36 37 38 39 40 41 42 43 44 45 46 47 48 49 50
000
ASUS41 KGYX 220110
RWRGYX
WEATHER ROUNDUP FOR MAINE AND NEW HAMPSHIRE
NATIONAL WEATHER SERVICE GRAY ME
900 PM EDT SAT OCT 21 2017

MEZ002-005-006-010-012-015-018-020-021-024-026-027-029-220200-
MAINE

CITY           SKY/WX    TMP DP  RH WIND       PRES   REMARKS
PORTLAND       CLOUDY    53  50  89 VRB5      30.29R
SANFORD        CLOUDY    51  48  89 W3        30.29R
BAR HARBOR     CLOUDY    50  43  77 CALM      30.32R
WISCASSET      PTCLDY    50  47  89 CALM      30.30S
ROCKLAND       MOCLDY    48  47  96 CALM      30.30R
FRYEBURG       NOT AVBL
LEWISTONAUBURN CLOUDY    52  45  77 CALM      30.29R
AUGUSTA        MOCLDY    55  44  66 CALM      30.30R
WATERVILLE     CLOUDY    54  44  69 S3        30.27R
BANGOR         CLOUDY    55  41  59 S3        30.30R
GREENVILLE       N/A     51  43  74 CALM      30.28R
MILLINOCKET    MOCLDY    46  42  86 CALM      30.32R
HOULTON        CLOUDY    37  33  85 CALM      30.31R
PRESQUE ISLE   PTCLDY    36  31  82 NW3       30.33R
FRENCHVILLE    PTCLDY    37  24  59 N8        30.32R
CARIBOU        CLOUDY    43  27  53 NE3       30.32R
$$

NHZ002-005-008-009-011-012-014-220200-
NEW HAMPSHIRE

CITY           SKY/WX    TMP DP  RH WIND       PRES   REMARKS
PORTSMOUTH     CLOUDY    61  47  59 SW3       30.27R
ROCHESTER      CLOUDY    60  47  61 NW3       30.29R
NASHUA         PTCLDY    59  49  69 NW3       30.31R
MANCHESTER     MOCLDY    62  48  60 S3        30.29R
CONCORD        PTCLDY    55  49  80 CALM      30.30R
LACONIA        MOCLDY    57  50  77 W3        30.30R
PLYMOUTH       FAIR      51  48  87 CALM      30.30R
BERLIN         CLOUDY    51  46  83 CALM      30.30R
WHITEFIELD     PTCLDY    49  45  86 CALM      30.31R
JAFFREY        CLOUDY    53  49  86 CALM      30.34R
KEENE          CLOUDY    50  47  89 CALM      30.33R
LEBANON        CLOUDY    51  47  86 CALM      30.30R
MT WASHINGTON  MOCLDY    45  41  87 NW31        N/A
$$

VTZ005-007-008-220200-
VERMONT

CITY           SKY/WX    TMP DP  RH WIND       PRES   REMARKS
ST JOHNSBURY     N/A     53  50  89 MISG      30.29R
BURLINGTON     CLEAR     57  49  74 CALM      30.29R
$$

MAZ007-012-024-CTZ003-RIZ002-NYZ038-NYZ072-220200-
SOUTHERN NEW ENGLAND AND NY

CITY           SKY/WX    TMP DP  RH WIND       PRES   REMARKS
BOSTON         CLOUDY    64  47  53 S6        30.30S
WORCESTER      CLOUDY    62  38  40 W8        30.33S
NANTUCKET      CLOUDY    60  57  89 SW9       30.35S
PROVIDENCE     CLOUDY    59  49  69 S5        30.33S
HARTFORD       CLOUDY    60  46  59 S3        30.32R
ALBANY         CLOUDY    53  48  83 CALM      30.31S
NEW YORK CITY  PTCLDY    67  47  48 S7        30.34R
$$

ANZ081-ANZ082-ANZ150-NHZ014-MEZ023>029-220200-
COASTAL MARINE OBSERVATIONS

STATION/POSITION TIME  TEMP    WIND        PRES    WAVE
                       AIR SEA DIR/SP/G            HT/PER
                 (UTC) (F)     (DEG/KT/KT) (MB)    (FT/S)
MOUNT DESERT ROC 0000   55     150/  9/ 10 1026.1R
MATINICUS ROCK   0000   56     180/ 11/ 12 1025.3R
ISLE OF SHOALS   0000   67     220/ 10/ 11 1024.9R
JEFFREYS LEDGE   0036      58                N/A     2/ 8
GEORGES BANK BUO 2350   58 59              1027.5    3/ 9
$$

.............KEY..............
   WCI - WIND CHILL
   TC  - TEMPERATURE IN CELSIUS
   VSB - VISIBILITY IN MILES
   HX  - HEAT INDEX
   FAIR- INDICATES FEW OR NO CLOUDS BELOW 12,000 FT, WITH NO
         SIGNIFICANT WEATHER AND/OR OBSTRUCTIONS TO VISIBILITY.






USA.gov is the U.S. government's official web portal to all federal, state and local government web resources and services.